User: anonymous   Login
Location: Buckeye Ditch
(40.9104°N, 122.9517°W)
Time: 18:56:52
(UTC+00:00)
Language:

Iridium 51 - Orbit

View from above orbital plane
View from above orbital plane
View from above satellite
View from above satellite

Ground track
Ground track

The orbit data is extracted from the following two-line orbital elements,

1 25262U 98018A   24166.59699348  .00018668  00000-0  85679-3 0  9992
2 25262  86.3963 233.2920 0145152 191.5003 168.2911 15.11274038391027
Epoch (UTC): 14 June 2024 14:19:40
Eccentricity: 0.0145152
inclination: 86.3963°
perigee height: 432 km
apogee height: 632 km
right ascension of ascending node: 233.2920°
argument of perigee: 191.5003°
revolutions per day: 15.11274038
mean anomaly at epoch: 168.2911°
orbit number at epoch: 39102

The dashed part of the orbit path shows where the satellite is in the earth's shadow,  

DLR